Content
SEND FEEDBACK

Daily
Averages
Monthly
Summary
Kazakhstan

AQTOBE, KAZAKHSTAN


Home > Asia > Kazakhstan
Elevation: 719 feet     Latitude: 50 16N     Longitude: 057 09E

WEATHER
 
SELECT A DAY
Number of Records: 201,642;   Date Range: 3/15/97 - 10/29/14
 
SHARE

PRINT THIS DATA

[ ← Previous Day ]
WEATHER ALMANAC - FEBRUARY 13, 2013
[ Next Day → ]
[ °C ]   °F
Weather ElementAverageHighLow
Temperature6.4 °F23 °F (4:30 pm)-5.8 °F (7:00 am)
Dewpoint-0.2 °F8.6 °F (2:30 pm)-9.4 °F (7:00 am)
Humidity73.7 %92 % (2:30 am)32 % (5:00 pm)
Barometer30.59 in30.69 in (2:00 am)30.54 in (10:30 pm)
Wind Speed3.1 mph6.7 mph (7:30 am)
Weather ElementAverage
Visibility6.5 mi
Wind DirectionESE (118 °)

Weather ElementTotal
Precipitation---
Heating Degree Days56.4 (Base 65)
Averaged from 55 records on February 13, 2013
WEATHER CONDITIONS BREAKOUT
WIND DIRECTION BREAKOUT
WEATHER BY HOUR - FEBRUARY 13, 2013
[ °C ]   °F
Local TimeTemperatureDewpointHumidityBarometerVisibilityWind DirectionWind SpeedGust SpeedPrecipitationEventsConditions
12:30 AM1.4 °F-2.2 °F85 %30.60 inSouth (170°)4.5 mphClear
1:00 AM1.4 °F-2.2 °F85 %30.60 inNNE (20°)2.2 mphClear
1:30 AM3.2 °F-0.4 °F85 %30.60 inVariable2.2 mphClear
2:00 AM2.0 °F-2.0 °F75 %30.69 inSE (130°)2.2 mphClear
2:00 AM5.0 °F-0.4 °F78 %30.60 inEast (90°)4.5 mphClear
2:30 AM1.4 °F-0.4 °F92 %30.60 inEast (100°)4.5 mphClear
3:00 AM1.4 °F-2.2 °F85 %30.60 inEast (90°)4.5 mphClear
3:30 AM-0.4 °F-4.0 °F85 %30.60 inVariable2.2 mphClear
4:00 AM-0.4 °F-4.0 °F85 %30.60 inEast (100°)2.2 mphClear
4:30 AM-0.4 °F-4.0 °F85 %30.60 inSE (140°)2.2 mphClear
5:00 AM-3.0 °F-7.0 °F77 %30.69 inCalmClear
5:00 AM3.2 °F-0.4 °F85 %30.60 inSSE (150°)4.5 mphClear
5:30 AM1.4 °F-2.2 °F85 %30.60 inCalmClear
6:00 AM-0.4 °F-4.0 °F85 %30.60 inESE (120°)2.2 mphClear
6:30 AM-4.0 °F-7.6 °F85 %30.60 inESE (110°)4.5 mphClear
7:00 AM-5.8 °F-9.4 °F84 %30.57 inSE (130°)4.5 mphClear
7:30 AM-5.8 °F-9.4 °F84 %30.57 inSE (130°)6.7 mphClear
8:00 AM-3.0 °F-6.0 °F79 %30.69 inCalmClear
8:00 AM-5.8 °F-9.4 °F84 %30.57 inSSE (150°)4.5 mphClear
8:30 AM-4.0 °F-7.6 °F85 %30.60 inEast (90°)2.2 mphClear
9:00 AM-2.2 °F-7.6 °F78 %30.60 inESE (110°)2.2 mphClear
9:30 AM-5.8 °F-9.4 °F84 %30.60 inSE (130°)2.2 mphClear
10:00 AM-2.2 °F-7.6 °F78 %30.60 in5.6 miSE (140°)4.5 mph
10:30 AM-0.4 °F-5.8 °F78 %30.60 in4.3 miSE (140°)2.2 mph
11:00 AM5.0 °F-1.0 °F67 %30.68 in12.0 miCalm
11:00 AM3.2 °F-4.0 °F72 %30.60 in4.3 miSE (140°)4.5 mph
11:30 AM6.8 °F-0.4 °F72 %30.60 in3.7 miESE (110°)2.2 mph
12:00 PM10.4 °F1.4 °F67 %30.60 in3.1 miSSE (150°)2.2 mphSmoke
12:30 PM12.2 °F3.2 °F67 %30.60 in4.3 miSSE (150°)4.5 mph
1:00 PM14.0 °F3.2 °F62 %30.60 in5.0 miSouth (170°)4.5 mph
1:30 PM15.8 °F6.8 °F68 %30.57 in5.6 miSouth (180°)2.2 mph
2:00 PM20.0 °F6.0 °F39 %30.64 in12.0 miSSE (160°)2.2 mph
2:00 PM17.6 °F6.8 °F63 %30.57 in5.6 miSouth (170°)4.5 mph
2:30 PM21.2 °F8.6 °F58 %30.57 inSSE (160°)2.2 mphClear
3:00 PM21.2 °F8.6 °F58 %30.57 inSSW (200°)4.5 mphClear
3:30 PM21.2 °F8.6 °F58 %30.57 inSSW (210°)4.5 mphClear
4:00 PM21.2 °F8.6 °F58 %30.57 inSSW (210°)2.2 mphClear
4:30 PM23.0 °F6.8 °F50 %30.57 inSouth (180°)4.5 mphClear
5:00 PM23.0 °F6.0 °F32 %30.63 in12.0 miSouth (170°)2.2 mph
5:00 PM19.4 °F8.6 °F63 %30.57 inSSW (200°)4.5 mphClear
5:30 PM17.6 °F8.6 °F68 %30.57 inSE (140°)4.5 mphClear
6:00 PM15.8 °F6.8 °F68 %30.57 inESE (110°)4.5 mphClear
6:30 PM14.0 °F5.0 °F67 %30.57 inESE (110°)4.5 mphClear
7:00 PM15.8 °F6.8 °F68 %30.57 inESE (110°)4.5 mphClear
7:30 PM15.8 °F6.8 °F68 %30.57 inVariable2.2 mphClear
8:00 PM11.0 °F3.0 °F59 %30.65 inCalm
8:00 PM12.2 °F5.0 °F73 %30.57 inVariable2.2 mphClear
8:30 PM8.6 °F3.2 °F79 %30.57 inVariable2.2 mphClear
9:00 PM1.4 °F-4.0 °F78 %30.57 inVariable2.2 mphClear
9:30 PM3.2 °F-0.4 °F85 %30.57 inVariable2.2 mphClear
10:00 PM3.2 °F-2.2 °F78 %30.57 inSouth (170°)4.5 mphClear
10:30 PM3.2 °F-0.4 °F85 %30.54 inSouth (180°)4.5 mphClear
11:00 PM1.0 °F-4.0 °F71 %30.66 inCalm
11:00 PM-0.4 °F-5.8 °F78 %30.54 inSSE (160°)6.7 mphClear
11:30 PM-0.4 °F-4.0 °F85 %30.54 inESE (120°)2.2 mphClear
Hourly data recorded from UATT, located miles away from Aqtobe, Kazakhstan







STORIES FROM OUR PARTNERS